Vorticity
15 20 5 15 9 3 8 7 5 7 8 9 8 13 15 17 8 8 11 21 14 14
20 12 5 7 4 6 13 11 9 9 5 6 6 7 12 15 17 24 17 15 15 16
13 21 15 15 13 13 5 4 7 8 9 10 13 18 11 9 11 18 16 17 20 17
20 22 37 18 21 20 16 12 11 10 8 10 9 13 12 18 11 14 8 10 10 12
-15 16 -14 -15 -6 7 -3 -1 1 3 10 11 8 14 17 15 16 14 11 6 10 11
-1 2 12 17 21 10 6 13 16 18 14 14 17 15 15 14 17 16 12 12 9 13
14 20 17 6 5 5 7 12 10 13 14 12 12 11 13 13 13 22 15 12 11 9
13 13 17 6 12 13 16 14 11 13 12 12 11 10 14 11 10 18 15 14 9 10
8 8 15 16 11 19 9 11 12 12 13 9 10 9 12 16 15 14 14 11 13 8
13 17 10 11 15 8 13 13 18 13 5 10 11 5 8 16 24 12 4 8 11 5
8 9 14 17 10 12 17 16 11 7 8 16 10 14 15 27 22 19 11 9 6 8
13 21 16 12 15 15 14 11 7 19 12 16 17 10 16 24 22 20 7 2 11 14
35 8 12 16 15 11 12 18 12 15 19 14 21 15 11 24 18 12 6 18 17 4
9 10 14 17 10 14 13 17 16 19 24 17 10 15 16 13 15 21 15 23 13 13
Height
5652 5648 5645 5643 5641 5639 5636 5633 5630 5626 5624 5621 5618 5615 5612 5609 5606 5604 5603 5600 5597 5595
5641 5638 5635 5632 5631 5628 5626 5622 5619 5616 5613 5608 5606 5603 5600 5596 5593 5590 5588 5586 5584 5582
5630 5627 5624 5622 5620 5617 5615 5611 5609 5604 5600 5597 5596 5593 5590 5585 5581 5579 5577 5575 5573 5571
5619 5616 5613 5610 5608 5606 5603 5601 5597 5592 5588 5587 5584 5582 5578 5573 5570 5568 5568 5565 5563 5561
5609 5605 5604 5601 5599 5596 5592 5589 5586 5582 5577 5574 5572 5567 5565 5561 5558 5557 5556 5555 5554 5551
5597 5593 5590 5589 5587 5583 5580 5576 5573 5569 5564 5561 5557 5555 5552 5550 5547 5546 5545 5545 5544 5542
5585 5584 5581 5578 5575 5572 5568 5564 5559 5555 5552 5548 5547 5544 5542 5540 5538 5537 5535 5534 5534 5533
5575 5572 5569 5567 5564 5559 5555 5552 5547 5544 5541 5538 5537 5534 5533 5531 5529 5528 5527 5526 5525 5525
5565 5562 5559 5556 5552 5548 5544 5539 5536 5534 5531 5530 5527 5525 5523 5522 5521 5520 5519 5519 5518 5517
5553 5551 5548 5544 5540 5536 5532 5529 5527 5524 5522 5520 5518 5515 5513 5511 5511 5510 5511 5511 5510 5510
5543 5539 5536 5532 5529 5526 5523 5520 5518 5516 5514 5510 5508 5505 5502 5501 5501 5501 5502 5503 5503 5503
5532 5529 5525 5523 5519 5516 5514 5512 5509 5507 5504 5501 5498 5496 5494 5493 5492 5493 5494 5495 5495 5495
5521 5519 5516 5513 5511 5509 5506 5504 5501 5498 5495 5493 5491 5489 5487 5487 5487 5487 5488 5488 5488 5488
5512 5510 5507 5505 5503 5501 5499 5496 5493 5491 5489 5488 5487 5486 5485 5483 5482 5481 5482 5482 5482 5482